Location: Gisborne
(38.6530°S, 178.0040°E)
Time: 04:28:39
(UTC+13:00)

ATLAS 3B R/B - Pass Details

Date: 24 January 2019
Orbit: 1028 x 1166 km, 63.8° (Epoch: 07 October)

Event Time Altitude Azimuth Distance (km) Brightness Sun altitude
Exits shadow 22:19:05 26° 63° (ENE) 2,052 3.6 -18.3°
Maximum altitude 22:19:47 27° 72° (ENE) 2,040 3.7 -18.4°
Drops below altitude 10° 22:25:38 10° 125° (SE) 3,065 5.0 -19.2°
Sets 22:28:50 0° 136° (SE) 4,048 5.8 -19.6°
